Time,TemperatureF,DewpointF,PressureIn,WindDirection,WindDirectionDegrees,WindSpeedMPH,WindSpeedGustMPH,Humidity,HourlyPrecipIn,Conditions,Clouds,dailyrainin,SolarRadiationWatts/m^2,SoftwareType,DateUTC
2013-05-27 00:01:00,43.2,37.1,30.09,North,0,0.0,0.0,79,0.00,RA,,0.00,0.0,WeatherDisplay:10.37,2013-05-27 04:01:00,
2013-05-27 00:03:00,43.1,37.0,30.09,North,0,0.0,0.0,79,0.00,RA,,0.00,0.0,WeatherDisplay:10.37,2013-05-27 04:03:00,
2013-05-27 00:08:00,43.0,36.9,30.09,North,0,0.0,0.0,79,0.00,RA,,0.00,0.0,WeatherDisplay:10.37,2013-05-27 04:08:00,
2013-05-27 00:13:00,42.8,36.7,30.09,North,0,0.0,0.0,79,0.00,CLR,,0.00,0.0,WeatherDisplay:10.37,2013-05-27 04:13:00,
2013-05-27 00:18:00,42.7,36.6,30.09,North,0,0.0,0.0,79,0.00,CLR,,0.00,0.0,WeatherDisplay:10.37,2013-05-27 04:18:00,
2013-05-27 00:23:00,42.5,36.4,30.09,North,0,0.0,0.0,79,0.00,CLR,,0.00,0.0,WeatherDisplay:10.37,2013-05-27 04:23:00,
2013-05-27 00:28:00,42.3,36.6,30.09,North,0,0.0,0.0,80,0.00,CLR,,0.00,0.0,WeatherDisplay:10.37,2013-05-27 04:28:00,
2013-05-27 00:33:00,42.2,36.2,30.09,North,0,0.0,0.0,79,0.00,CLR,,0.00,0.0,WeatherDisplay:10.37,2013-05-27 04:33:00,
2013-05-27 00:38:00,42.0,36.3,30.09,North,0,0.0,0.0,80,0.00,CLR,,0.00,0.0,WeatherDisplay:10.37,2013-05-27 04:38:00,
2013-05-27 00:43:00,41.9,36.2,30.10,North,0,0.0,0.0,80,0.00,CLR,,0.00,0.0,WeatherDisplay:10.37,2013-05-27 04:43:00,
2013-05-27 00:48:00,41.7,36.0,30.10,North,0,0.0,0.0,80,0.00,CLR,,0.00,0.0,WeatherDisplay:10.37,2013-05-27 04:48:00,
2013-05-27 00:53:00,41.6,35.9,30.10,North,0,0.0,0.0,80,0.00,CLR,,0.00,0.0,WeatherDisplay:10.37,2013-05-27 04:53:00,
2013-05-27 00:58:00,41.4,35.7,30.10,North,0,0.0,0.0,80,0.00,CLR,,0.00,0.0,WeatherDisplay:10.37,2013-05-27 04:58:00,
2013-05-27 01:03:00,41.3,35.6,30.10,North,0,0.0,0.0,80,0.00,CLR,,0.00,0.0,WeatherDisplay:10.37,2013-05-27 05:03:00,
2013-05-27 01:08:00,41.2,35.5,30.11,North,0,0.0,0.0,80,0.00,CLR,,0.00,0.0,WeatherDisplay:10.37,2013-05-27 05:08:00,
2013-05-27 01:13:00,41.1,35.4,30.10,North,0,0.0,0.0,80,0.00,CLR,,0.00,0.0,WeatherDisplay:10.37,2013-05-27 05:13:00,
2013-05-27 01:18:00,41.0,35.3,30.10,North,0,0.0,0.0,80,0.00,CLR,,0.00,0.0,WeatherDisplay:10.37,2013-05-27 05:18:00,
2013-05-27 01:23:00,40.8,35.1,30.10,North,0,0.0,0.0,80,0.00,CLR,,0.00,0.0,WeatherDisplay:10.37,2013-05-27 05:23:00,
2013-05-27 01:28:00,40.7,35.0,30.10,North,0,0.0,0.0,80,0.00,CLR,,0.00,0.0,WeatherDisplay:10.37,2013-05-27 05:28:00,
2013-05-27 01:33:00,40.6,35.2,30.10,North,0,0.0,0.0,81,0.00,CLR,,0.00,0.0,WeatherDisplay:10.37,2013-05-27 05:33:00,
2013-05-27 01:38:00,40.5,34.8,30.11,North,0,0.0,0.0,80,0.00,CLR,,0.00,0.0,WeatherDisplay:10.37,2013-05-27 05:38:00,
2013-05-27 01:43:00,40.4,34.7,30.11,North,0,0.0,0.0,80,0.00,CLR,,0.00,0.0,WeatherDisplay:10.37,2013-05-27 05:43:00,
2013-05-27 01:48:00,40.3,34.9,30.11,North,0,0.0,0.0,81,0.00,CLR,,0.00,0.0,WeatherDisplay:10.37,2013-05-27 05:48:00,
2013-05-27 01:53:00,40.2,34.8,30.11,North,0,0.0,0.0,81,0.00,CLR,,0.00,0.0,WeatherDisplay:10.37,2013-05-27 05:53:00,
2013-05-27 01:58:00,40.2,34.8,30.10,North,0,0.0,0.0,81,0.00,CLR,,0.00,0.0,WeatherDisplay:10.37,2013-05-27 05:58:00,
2013-05-27 02:03:00,40.1,34.7,30.10,North,0,0.0,0.0,81,0.00,CLR,,0.00,0.0,WeatherDisplay:10.37,2013-05-27 06:03:00,
2013-05-27 02:08:00,40.0,34.6,30.10,North,0,0.0,0.0,81,0.00,CLR,,0.00,0.0,WeatherDisplay:10.37,2013-05-27 06:08:00,
2013-05-27 02:13:00,39.9,34.5,30.10,North,0,0.0,0.0,81,0.00,CLR,,0.00,0.0,WeatherDisplay:10.37,2013-05-27 06:13:00,
2013-05-27 02:18:00,39.8,34.4,30.10,North,0,0.0,0.0,81,0.00,CLR,,0.00,0.0,WeatherDisplay:10.37,2013-05-27 06:18:00,
2013-05-27 02:23:00,39.8,34.4,30.10,North,0,0.0,0.0,81,0.00,CLR,,0.00,0.0,WeatherDisplay:10.37,2013-05-27 06:23:00,
2013-05-27 02:28:00,39.7,34.3,30.10,North,0,0.0,0.0,81,0.00,CLR,,0.00,0.0,WeatherDisplay:10.37,2013-05-27 06:28:00,
2013-05-27 02:33:00,39.6,34.2,30.10,North,0,0.0,0.0,81,0.00,CLR,,0.00,0.0,WeatherDisplay:10.37,2013-05-27 06:33:00,
2013-05-27 02:38:00,39.6,34.2,30.09,North,0,0.0,0.0,81,0.00,CLR,,0.00,0.0,WeatherDisplay:10.37,2013-05-27 06:38:00,
2013-05-27 02:43:00,39.5,34.2,30.09,North,0,0.0,0.0,81,0.00,CLR,,0.00,0.0,WeatherDisplay:10.37,2013-05-27 06:43:00,
2013-05-27 02:48:00,39.5,34.2,30.10,North,0,0.0,0.0,81,0.00,CLR,,0.00,0.0,WeatherDisplay:10.37,2013-05-27 06:48:00,
2013-05-27 02:53:00,39.5,34.2,30.09,North,0,0.0,0.0,81,0.00,CLR,,0.00,0.0,WeatherDisplay:10.37,2013-05-27 06:53:00,
2013-05-27 02:58:00,39.4,34.4,30.09,North,0,0.0,0.0,82,0.00,CLR,,0.00,0.0,WeatherDisplay:10.37,2013-05-27 06:58:00,
2013-05-27 03:03:00,39.4,34.1,30.09,North,0,0.0,0.0,81,0.00,CLR,,0.00,0.0,WeatherDisplay:10.37,2013-05-27 07:03:00,
2013-05-27 03:08:00,39.3,34.0,30.09,North,0,0.0,0.0,81,0.00,CLR,,0.00,0.0,WeatherDisplay:10.37,2013-05-27 07:08:00,
2013-05-27 03:13:00,39.3,34.3,30.09,North,0,0.0,0.0,82,0.00,CLR,,0.00,0.0,WeatherDisplay:10.37,2013-05-27 07:13:00,
2013-05-27 03:18:00,39.2,34.2,30.09,North,0,0.0,0.0,82,0.00,CLR,,0.00,0.0,WeatherDisplay:10.37,2013-05-27 07:18:00,
2013-05-27 03:23:00,39.1,34.1,30.09,North,0,0.0,0.0,82,0.00,CLR,,0.00,0.0,WeatherDisplay:10.37,2013-05-27 07:23:00,
2013-05-27 03:28:00,39.0,34.0,30.09,North,0,0.0,0.0,82,0.00,CLR,,0.00,0.0,WeatherDisplay:10.37,2013-05-27 07:28:00,
2013-05-27 03:33:00,39.0,34.0,30.09,North,0,0.0,0.0,82,0.00,CLR,,0.00,0.0,WeatherDisplay:10.37,2013-05-27 07:33:00,
2013-05-27 03:38:00,38.9,33.9,30.09,North,0,0.0,0.0,82,0.00,CLR,,0.00,0.0,WeatherDisplay:10.37,2013-05-27 07:38:00,
2013-05-27 03:43:00,38.9,33.9,30.09,North,0,0.0,0.0,82,0.00,CLR,,0.00,0.0,WeatherDisplay:10.37,2013-05-27 07:43:00,
2013-05-27 03:48:00,38.7,33.7,30.09,North,0,0.0,0.0,82,0.00,CLR,,0.00,0.0,WeatherDisplay:10.37,2013-05-27 07:48:00,
2013-05-27 03:53:00,38.7,33.7,30.09,North,0,0.0,0.0,82,0.00,CLR,,0.00,0.0,WeatherDisplay:10.37,2013-05-27 07:53:00,
2013-05-27 03:58:00,38.6,33.6,30.09,North,0,0.0,0.0,82,0.00,CLR,,0.00,0.0,WeatherDisplay:10.37,2013-05-27 07:58:00,
2013-05-27 04:03:00,38.5,33.5,30.08,North,0,0.0,0.0,82,0.00,CLR,,0.00,0.0,WeatherDisplay:10.37,2013-05-27 08:03:00,
2013-05-27 04:08:00,38.4,33.4,30.09,North,0,0.0,0.0,82,0.00,CLR,,0.00,0.0,WeatherDisplay:10.37,2013-05-27 08:08:00,
2013-05-27 04:13:00,38.3,33.3,30.09,North,0,0.0,0.0,82,0.00,CLR,,0.00,0.0,WeatherDisplay:10.37,2013-05-27 08:13:00,
2013-05-27 04:18:00,38.2,33.2,30.09,North,0,0.0,0.0,82,0.00,CLR,,0.00,0.0,WeatherDisplay:10.37,2013-05-27 08:18:00,
2013-05-27 04:23:00,38.2,33.2,30.09,North,0,0.0,0.0,82,0.00,CLR,,0.00,0.0,WeatherDisplay:10.37,2013-05-27 08:23:00,
2013-05-27 04:28:00,38.1,33.1,30.09,North,0,0.0,0.0,82,0.00,CLR,,0.00,0.0,WeatherDisplay:10.37,2013-05-27 08:28:00,
2013-05-27 04:33:00,38.0,33.0,30.09,North,0,0.0,0.0,82,0.00,CLR,,0.00,0.0,WeatherDisplay:10.37,2013-05-27 08:33:00,
2013-05-27 04:38:00,38.0,33.0,30.09,North,0,0.0,0.0,82,0.00,CLR,,0.00,0.0,WeatherDisplay:10.37,2013-05-27 08:38:00,
2013-05-27 04:43:00,37.9,32.9,30.10,North,0,0.0,0.0,82,0.00,CLR,,0.00,0.0,WeatherDisplay:10.37,2013-05-27 08:43:00,
2013-05-27 04:48:00,37.9,32.9,30.09,North,0,0.0,0.0,82,0.00,CLR,,0.00,0.0,WeatherDisplay:10.37,2013-05-27 08:48:00,
2013-05-27 04:53:00,37.9,32.9,30.09,North,0,0.0,0.0,82,0.00,CLR,,0.00,0.0,WeatherDisplay:10.37,2013-05-27 08:53:00,
2013-05-27 04:58:00,37.9,32.9,30.09,North,0,0.0,0.0,82,0.00,CLR,,0.00,0.0,WeatherDisplay:10.37,2013-05-27 08:58:00,
2013-05-27 05:03:00,37.8,32.8,30.10,North,0,0.0,0.0,82,0.00,OVC,,0.00,0.0,WeatherDisplay:10.37,2013-05-27 09:03:00,
2013-05-27 05:08:00,37.9,32.9,30.10,North,0,0.0,0.0,82,0.00,OVC,,0.00,0.0,WeatherDisplay:10.37,2013-05-27 09:08:00,
2013-05-27 05:13:00,37.9,32.9,30.10,North,0,0.0,0.0,82,0.00,OVC,,0.00,0.0,WeatherDisplay:10.37,2013-05-27 09:13:00,
2013-05-27 05:18:00,37.9,32.9,30.10,North,0,0.0,0.0,82,0.00,OVC,,0.00,0.0,WeatherDisplay:10.37,2013-05-27 09:18:00,
2013-05-27 05:23:00,38.0,33.0,30.10,North,0,0.0,0.0,82,0.00,OVC,,0.00,0.0,WeatherDisplay:10.37,2013-05-27 09:23:00,
2013-05-27 05:28:00,38.1,33.4,30.10,North,0,0.0,0.0,83,0.00,OVC,,0.00,0.0,WeatherDisplay:10.37,2013-05-27 09:28:00,
2013-05-27 05:33:00,38.2,33.5,30.10,North,0,0.0,0.0,83,0.00,BKN,,0.00,5.0,WeatherDisplay:10.37,2013-05-27 09:33:00,
2013-05-27 05:38:00,38.3,33.6,30.10,North,0,0.0,0.0,83,0.00,BKN,,0.00,7.0,WeatherDisplay:10.37,2013-05-27 09:38:00,
2013-05-27 05:43:00,38.5,33.8,30.10,North,0,0.0,0.0,83,0.00,BKN,,0.00,7.0,WeatherDisplay:10.37,2013-05-27 09:43:00,
2013-05-27 05:48:00,38.5,33.8,30.10,North,0,0.0,0.0,83,0.00,BKN,,0.00,9.0,WeatherDisplay:10.37,2013-05-27 09:48:00,
2013-05-27 05:53:00,38.6,33.9,30.10,North,0,0.0,0.0,83,0.00,BKN,,0.00,11.0,WeatherDisplay:10.37,2013-05-27 09:53:00,
2013-05-27 05:58:00,38.8,34.1,30.10,North,0,0.0,0.0,83,0.00,BKN,,0.00,12.0,WeatherDisplay:10.37,2013-05-27 09:58:00,
2013-05-27 06:03:00,38.9,34.2,30.10,North,0,0.0,0.0,83,0.00,BKN,,0.00,12.0,WeatherDisplay:10.37,2013-05-27 10:03:00,
2013-05-27 06:08:00,39.1,34.4,30.10,North,0,0.0,0.0,83,0.00,BKN,,0.00,16.0,WeatherDisplay:10.37,2013-05-27 10:08:00,
2013-05-27 06:13:00,39.3,34.6,30.11,North,0,0.0,0.0,83,0.00,BKN,,0.00,16.0,WeatherDisplay:10.37,2013-05-27 10:13:00,
2013-05-27 06:18:00,39.5,34.8,30.11,North,0,0.0,0.0,83,0.00,BKN,,0.00,18.0,WeatherDisplay:10.37,2013-05-27 10:18:00,
2013-05-27 06:23:00,39.7,35.0,30.10,North,0,0.0,0.0,83,0.00,BKN,,0.00,19.0,WeatherDisplay:10.37,2013-05-27 10:23:00,
2013-05-27 06:28:00,40.0,35.3,30.11,North,0,0.0,0.0,83,0.00,BKN,,0.00,21.0,WeatherDisplay:10.37,2013-05-27 10:28:00,
2013-05-27 06:33:00,40.2,35.4,30.11,North,0,0.0,0.0,83,0.00,BKN,,0.00,21.0,WeatherDisplay:10.37,2013-05-27 10:33:00,
2013-05-27 06:38:00,40.4,35.6,30.11,North,0,0.0,0.0,83,0.00,BKN,,0.00,23.0,WeatherDisplay:10.37,2013-05-27 10:38:00,
2013-05-27 06:43:00,40.7,35.9,30.11,North,0,0.0,0.0,83,0.00,BKN,,0.00,25.0,WeatherDisplay:10.37,2013-05-27 10:43:00,
2013-05-27 06:48:00,41.0,36.2,30.11,North,0,0.0,0.0,83,0.00,BKN,,0.00,26.0,WeatherDisplay:10.37,2013-05-27 10:48:00,
2013-05-27 06:53:00,41.4,36.9,30.11,North,0,0.0,0.0,84,0.00,BKN,,0.00,28.0,WeatherDisplay:10.37,2013-05-27 10:53:00,
2013-05-27 06:58:00,41.7,37.2,30.11,North,0,0.0,0.0,84,0.00,BKN,,0.00,30.0,WeatherDisplay:10.37,2013-05-27 10:58:00,
2013-05-27 07:03:00,42.0,37.5,30.11,North,0,0.0,0.0,84,0.00,BKN,,0.00,30.0,WeatherDisplay:10.37,2013-05-27 11:03:00,
2013-05-27 07:08:00,42.3,37.8,30.11,North,0,0.0,0.0,84,0.00,BKN,,0.00,32.0,WeatherDisplay:10.37,2013-05-27 11:08:00,
2013-05-27 07:13:00,42.7,38.2,30.11,North,0,0.0,0.0,84,0.00,BKN,,0.00,33.0,WeatherDisplay:10.37,2013-05-27 11:13:00,
2013-05-27 07:18:00,43.0,38.5,30.11,North,0,0.0,0.0,84,0.00,BKN,,0.00,35.0,WeatherDisplay:10.37,2013-05-27 11:18:00,
2013-05-27 07:23:00,43.4,38.6,30.11,North,0,0.0,0.0,83,0.00,BKN,,0.00,37.0,WeatherDisplay:10.37,2013-05-27 11:23:00,
2013-05-27 07:28:00,43.7,38.9,30.11,North,0,0.0,0.0,83,0.00,BKN,,0.00,39.0,WeatherDisplay:10.37,2013-05-27 11:28:00,
2013-05-27 07:33:00,44.1,39.3,30.11,North,0,0.0,0.0,83,0.00,BKN,,0.00,39.0,WeatherDisplay:10.37,2013-05-27 11:33:00,
2013-05-27 07:38:00,44.5,39.7,30.11,North,0,0.0,0.0,83,0.00,BKN,,0.00,40.0,WeatherDisplay:10.37,2013-05-27 11:38:00,
2013-05-27 07:43:00,45.1,39.9,30.11,North,0,0.0,0.0,82,0.00,BKN,,0.00,42.0,WeatherDisplay:10.37,2013-05-27 11:43:00,
2013-05-27 07:48:00,45.7,40.5,30.11,North,0,0.0,0.0,82,0.00,BKN,,0.00,44.0,WeatherDisplay:10.37,2013-05-27 11:48:00,
2013-05-27 07:53:00,46.7,41.2,30.11,North,0,0.0,0.0,81,0.00,BKN,,0.00,46.0,WeatherDisplay:10.37,2013-05-27 11:53:00,
2013-05-27 07:58:00,47.5,42.0,30.11,North,0,0.0,0.0,81,0.00,BKN,,0.00,49.0,WeatherDisplay:10.37,2013-05-27 11:58:00,
2013-05-27 08:03:00,48.1,42.2,30.11,North,0,0.0,0.0,80,0.00,BKN,,0.00,51.0,WeatherDisplay:10.37,2013-05-27 12:03:00,
2013-05-27 08:08:00,48.8,42.6,30.12,North,0,0.0,0.0,79,0.00,BKN,,0.00,54.0,WeatherDisplay:10.37,2013-05-27 12:08:00,
2013-05-27 08:13:00,49.3,42.7,30.12,North,0,0.0,0.0,78,0.00,BKN,,0.00,56.0,WeatherDisplay:10.37,2013-05-27 12:13:00,
2013-05-27 08:18:00,49.8,43.2,30.12,North,0,0.0,0.0,78,0.00,BKN,,0.00,60.0,WeatherDisplay:10.37,2013-05-27 12:18:00,
2013-05-27 08:23:00,50.2,43.3,30.12,North,0,0.0,0.0,77,0.00,BKN,,0.00,63.0,WeatherDisplay:10.37,2013-05-27 12:23:00,
2013-05-27 08:28:00,50.7,43.4,30.12,North,0,0.0,0.0,76,0.00,BKN,,0.00,67.0,WeatherDisplay:10.37,2013-05-27 12:28:00,
2013-05-27 08:33:00,51.1,43.4,30.12,North,0,0.0,0.0,75,0.00,BKN,,0.00,72.0,WeatherDisplay:10.37,2013-05-27 12:33:00,
2013-05-27 08:38:00,51.5,43.5,30.12,North,0,0.0,0.0,74,0.00,BKN,,0.00,107.0,WeatherDisplay:10.37,2013-05-27 12:38:00,
2013-05-27 08:43:00,51.9,43.5,30.12,North,0,0.0,0.0,73,0.00,BKN,,0.00,272.0,WeatherDisplay:10.37,2013-05-27 12:43:00,
2013-05-27 08:48:00,52.4,44.4,30.12,North,0,0.0,0.0,74,0.00,SCT,,0.00,359.0,WeatherDisplay:10.37,2013-05-27 12:48:00,
2013-05-27 08:53:00,53.0,44.6,30.12,North,0,0.0,0.0,73,0.00,FEW,,0.00,570.0,WeatherDisplay:10.37,2013-05-27 12:53:00,
2013-05-27 08:58:00,53.6,44.8,30.12,North,0,0.0,0.0,72,0.00,CLR,,0.00,589.0,WeatherDisplay:10.37,2013-05-27 12:58:00,
2013-05-27 09:03:00,54.4,45.2,30.12,North,0,0.0,0.0,71,0.00,CLR,,0.00,608.0,WeatherDisplay:10.37,2013-05-27 13:03:00,
2013-05-27 09:08:00,55.1,44.7,30.12,North,0,0.0,0.0,68,0.00,CLR,,0.00,628.0,WeatherDisplay:10.37,2013-05-27 13:08:00,
2013-05-27 09:13:00,55.9,45.5,30.12,North,0,0.0,0.0,68,0.00,CLR,,0.00,643.0,WeatherDisplay:10.37,2013-05-27 13:13:00,
2013-05-27 09:18:00,56.6,45.0,30.12,North,0,0.0,0.0,65,0.00,CLR,,0.00,657.0,WeatherDisplay:10.37,2013-05-27 13:18:00,
2013-05-27 09:23:00,57.3,45.6,30.12,North,0,0.0,0.0,65,0.00,CLR,,0.00,677.0,WeatherDisplay:10.37,2013-05-27 13:23:00,
2013-05-27 09:28:00,58.0,45.9,30.12,North,0,0.0,0.0,64,0.00,CLR,,0.00,691.0,WeatherDisplay:10.37,2013-05-27 13:28:00,
2013-05-27 09:33:00,58.6,45.2,30.12,North,0,0.0,0.0,61,0.00,CLR,,0.00,708.0,WeatherDisplay:10.37,2013-05-27 13:33:00,
2013-05-27 09:38:00,59.2,46.6,30.12,North,0,0.0,0.0,63,0.00,CLR,,0.00,719.0,WeatherDisplay:10.37,2013-05-27 13:38:00,
2013-05-27 09:43:00,59.8,45.4,30.12,North,0,0.0,0.0,59,0.00,CLR,,0.00,731.0,WeatherDisplay:10.37,2013-05-27 13:43:00,
2013-05-27 09:48:00,60.3,46.4,30.12,North,0,0.0,0.0,60,0.00,CLR,,0.00,754.0,WeatherDisplay:10.37,2013-05-27 13:48:00,
2013-05-27 09:53:00,61.0,46.1,30.12,North,0,0.0,0.0,58,0.00,CLR,,0.00,766.0,WeatherDisplay:10.37,2013-05-27 13:53:00,
2013-05-27 09:58:00,61.7,46.8,30.12,North,0,0.0,0.0,58,0.00,CLR,,0.00,777.0,WeatherDisplay:10.37,2013-05-27 13:58:00,
2013-05-27 10:03:00,62.3,47.3,30.12,North,0,0.0,0.0,58,0.00,CLR,,0.00,793.0,WeatherDisplay:10.37,2013-05-27 14:03:00,
2013-05-27 10:08:00,62.9,47.0,30.12,North,0,0.0,0.0,56,0.00,CLR,,0.00,803.0,WeatherDisplay:10.37,2013-05-27 14:08:00,
2013-05-27 10:13:00,63.5,45.6,30.12,North,0,0.0,0.0,52,0.00,CLR,,0.00,816.0,WeatherDisplay:10.37,2013-05-27 14:13:00,
2013-05-27 10:18:00,64.0,46.0,30.12,North,0,0.0,0.0,52,0.00,CLR,,0.00,833.0,WeatherDisplay:10.37,2013-05-27 14:18:00,
2013-05-27 10:23:00,64.6,47.6,30.12,North,0,0.0,0.0,54,0.00,CLR,,0.00,842.0,WeatherDisplay:10.37,2013-05-27 14:23:00,
2013-05-27 10:28:00,65.2,47.6,30.12,North,0,0.0,0.0,53,0.00,CLR,,0.00,853.0,WeatherDisplay:10.37,2013-05-27 14:28:00,
2013-05-27 10:33:00,65.5,44.7,30.11,North,0,0.0,0.0,47,0.00,CLR,,0.00,865.0,WeatherDisplay:10.37,2013-05-27 14:33:00,
2013-05-27 10:38:00,65.9,45.1,30.11,North,0,0.0,0.0,47,0.00,CLR,,0.00,877.0,WeatherDisplay:10.37,2013-05-27 14:38:00,
2013-05-27 10:43:00,66.1,44.1,30.11,North,0,0.0,0.0,45,0.00,FEW,,0.00,886.0,WeatherDisplay:10.37,2013-05-27 14:43:00,
2013-05-27 10:48:00,66.5,48.3,30.11,North,0,0.0,0.0,52,0.00,CLR,,0.00,853.0,WeatherDisplay:10.37,2013-05-27 14:48:00,
2013-05-27 10:53:00,66.8,45.3,30.11,North,0,0.0,0.0,46,0.00,CLR,,0.00,904.0,WeatherDisplay:10.37,2013-05-27 14:53:00,
2013-05-27 10:58:00,67.2,48.5,30.11,North,0,0.0,0.0,51,0.00,CLR,,0.00,925.0,WeatherDisplay:10.37,2013-05-27 14:58:00,
2013-05-27 11:03:00,67.5,46.0,30.11,North,0,0.0,0.0,46,0.00,CLR,,0.00,921.0,WeatherDisplay:10.37,2013-05-27 15:03:00,
2013-05-27 11:08:00,67.7,46.2,30.11,North,0,0.0,0.0,46,0.00,CLR,,0.00,930.0,WeatherDisplay:10.37,2013-05-27 15:08:00,
2013-05-27 11:13:00,67.8,42.6,30.11,North,0,0.0,0.0,40,0.00,CLR,,0.00,946.0,WeatherDisplay:10.37,2013-05-27 15:13:00,
2013-05-27 11:18:00,67.7,42.5,30.11,North,0,0.0,0.0,40,0.00,CLR,,0.00,951.0,WeatherDisplay:10.37,2013-05-27 15:18:00,
2013-05-27 11:23:00,67.5,43.0,30.10,North,0,0.0,0.0,41,0.00,CLR,,0.00,956.0,WeatherDisplay:10.37,2013-05-27 15:23:00,
2013-05-27 11:28:00,67.5,44.2,30.10,North,0,0.0,0.0,43,0.00,CLR,,0.00,958.0,WeatherDisplay:10.37,2013-05-27 15:28:00,
2013-05-27 11:33:00,67.6,43.1,30.11,North,0,0.0,0.0,41,0.00,CLR,,0.00,969.0,WeatherDisplay:10.37,2013-05-27 15:33:00,
2013-05-27 11:38:00,67.8,45.7,30.11,North,0,0.0,0.0,45,0.00,CLR,,0.00,974.0,WeatherDisplay:10.37,2013-05-27 15:38:00,
2013-05-27 11:43:00,68.0,45.3,30.10,North,0,0.0,0.0,44,0.00,CLR,,0.00,984.0,WeatherDisplay:10.37,2013-05-27 15:43:00,
2013-05-27 11:48:00,68.3,47.3,30.10,North,0,0.0,0.0,47,0.00,CLR,,0.00,991.0,WeatherDisplay:10.37,2013-05-27 15:48:00,
2013-05-27 11:53:00,68.6,45.8,30.10,North,0,0.0,0.0,44,0.00,CLR,,0.00,991.0,WeatherDisplay:10.37,2013-05-27 15:53:00,
2013-05-27 11:58:00,69.0,46.8,30.10,North,0,0.0,0.0,45,0.00,CLR,,0.00,995.0,WeatherDisplay:10.37,2013-05-27 15:58:00,
2013-05-27 12:03:00,69.4,46.5,30.10,North,0,0.0,0.0,44,0.00,CLR,,0.00,1005.0,WeatherDisplay:10.37,2013-05-27 16:03:00,
2013-05-27 12:08:00,69.5,44.8,30.10,North,0,0.0,0.0,41,0.00,CLR,,0.00,1002.0,WeatherDisplay:10.37,2013-05-27 16:08:00,
2013-05-27 12:13:00,69.7,46.2,30.10,North,0,0.0,0.0,43,0.00,CLR,,0.00,1009.0,WeatherDisplay:10.37,2013-05-27 16:13:00,
2013-05-27 12:18:00,69.8,48.1,30.10,North,0,0.0,0.0,46,0.00,CLR,,0.00,1011.0,WeatherDisplay:10.37,2013-05-27 16:18:00,
2013-05-27 12:23:00,69.9,45.8,30.10,North,0,0.0,0.0,42,0.00,CLR,,0.00,1013.0,WeatherDisplay:10.37,2013-05-27 16:23:00,
2013-05-27 12:28:00,70.2,44.7,30.10,North,0,0.0,0.0,40,0.00,CLR,,0.00,1014.0,WeatherDisplay:10.37,2013-05-27 16:28:00,
2013-05-27 12:33:00,70.3,45.5,30.09,North,0,0.0,0.0,41,0.00,CLR,,0.00,1014.0,WeatherDisplay:10.37,2013-05-27 16:33:00,
2013-05-27 12:38:00,70.5,46.9,30.08,North,0,0.0,0.0,43,0.00,CLR,,0.00,1020.0,WeatherDisplay:10.37,2013-05-27 16:38:00,
2013-05-27 12:43:00,70.4,48.0,30.09,North,0,0.0,0.0,45,0.00,CLR,,0.00,1023.0,WeatherDisplay:10.37,2013-05-27 16:43:00,
2013-05-27 12:48:00,69.2,44.5,30.08,North,0,0.0,0.0,41,0.00,CLR,,0.00,1023.0,WeatherDisplay:10.37,2013-05-27 16:48:00,
2013-05-27 12:53:00,68.7,47.1,30.09,North,0,0.0,0.0,46,0.00,CLR,,0.00,1027.0,WeatherDisplay:10.37,2013-05-27 16:53:00,
2013-05-27 12:58:00,68.4,45.0,30.08,North,0,0.0,0.0,43,0.00,CLR,,0.00,1021.0,WeatherDisplay:10.37,2013-05-27 16:58:00,
2013-05-27 13:03:00,68.5,43.9,30.08,North,0,0.0,0.0,41,0.00,CLR,,0.00,1023.0,WeatherDisplay:10.37,2013-05-27 17:03:00,
2013-05-27 13:08:00,69.0,47.4,30.08,North,0,0.0,0.0,46,0.00,CLR,,0.00,1021.0,WeatherDisplay:10.37,2013-05-27 17:08:00,
2013-05-27 13:13:00,69.4,47.7,30.08,North,0,0.0,0.0,46,0.00,CLR,,0.00,1018.0,WeatherDisplay:10.37,2013-05-27 17:13:00,
2013-05-27 13:18:00,69.3,45.2,30.08,North,0,0.0,0.0,42,0.00,CLR,,0.00,1016.0,WeatherDisplay:10.37,2013-05-27 17:18:00,
2013-05-27 13:23:00,69.4,44.0,30.08,North,0,0.0,0.0,40,0.00,CLR,,0.00,1014.0,WeatherDisplay:10.37,2013-05-27 17:23:00,
2013-05-27 13:28:00,69.4,42.0,30.08,North,0,0.0,0.0,37,0.00,CLR,,0.00,1011.0,WeatherDisplay:10.37,2013-05-27 17:28:00,
2013-05-27 13:33:00,68.8,42.8,30.08,North,0,0.0,0.0,39,0.00,CLR,,0.00,1009.0,WeatherDisplay:10.37,2013-05-27 17:33:00,
2013-05-27 13:38:00,69.1,43.1,30.08,North,0,0.0,0.0,39,0.00,CLR,,0.00,1004.0,WeatherDisplay:10.37,2013-05-27 17:38:00,
2013-05-27 13:43:00,69.5,46.6,30.08,North,0,0.0,0.0,44,0.00,CLR,,0.00,998.0,WeatherDisplay:10.37,2013-05-27 17:43:00,
2013-05-27 13:48:00,70.0,44.6,30.08,North,0,0.0,0.0,40,0.00,CLR,,0.00,991.0,WeatherDisplay:10.37,2013-05-27 17:48:00,
2013-05-27 13:53:00,70.1,45.3,30.08,North,0,0.0,0.0,41,0.00,CLR,,0.00,993.0,WeatherDisplay:10.37,2013-05-27 17:53:00,
2013-05-27 13:58:00,70.6,47.6,30.08,North,0,0.0,0.0,44,0.00,CLR,,0.00,983.0,WeatherDisplay:10.37,2013-05-27 17:58:00,
2013-05-27 14:03:00,70.2,44.1,30.07,North,0,0.0,0.0,39,0.00,CLR,,0.00,981.0,WeatherDisplay:10.37,2013-05-27 18:03:00,
2013-05-27 14:08:00,70.2,45.4,30.07,North,0,0.0,0.0,41,0.00,CLR,,0.00,976.0,WeatherDisplay:10.37,2013-05-27 18:08:00,
2013-05-27 14:13:00,70.1,41.9,30.07,North,0,0.0,0.0,36,0.00,CLR,,0.00,970.0,WeatherDisplay:10.37,2013-05-27 18:13:00,
2013-05-27 14:18:00,70.5,47.5,30.07,North,0,0.0,0.0,44,0.00,CLR,,0.00,963.0,WeatherDisplay:10.37,2013-05-27 18:18:00,
2013-05-27 14:23:00,70.6,47.6,30.07,North,0,0.0,0.0,44,0.00,CLR,,0.00,963.0,WeatherDisplay:10.37,2013-05-27 18:23:00,
2013-05-27 14:28:00,70.8,46.6,30.07,North,0,0.0,0.0,42,0.00,CLR,,0.00,951.0,WeatherDisplay:10.37,2013-05-27 18:28:00,
2013-05-27 14:33:00,70.7,43.8,30.07,North,0,0.0,0.0,38,0.00,CLR,,0.00,940.0,WeatherDisplay:10.37,2013-05-27 18:33:00,
2013-05-27 14:38:00,70.3,42.8,30.07,North,0,0.0,0.0,37,0.00,CLR,,0.00,935.0,WeatherDisplay:10.37,2013-05-27 18:38:00,
2013-05-27 14:43:00,70.3,42.1,30.06,North,0,0.0,0.0,36,0.00,CLR,,0.00,925.0,WeatherDisplay:10.37,2013-05-27 18:43:00,
2013-05-27 14:48:00,70.4,43.6,30.06,North,0,0.0,0.0,38,0.00,CLR,,0.00,914.0,WeatherDisplay:10.37,2013-05-27 18:48:00,
2013-05-27 14:53:00,70.8,43.2,30.07,North,0,0.0,0.0,37,0.00,CLR,,0.00,907.0,WeatherDisplay:10.37,2013-05-27 18:53:00,
2013-05-27 14:58:00,70.8,47.2,30.06,North,0,0.0,0.0,43,0.00,CLR,,0.00,898.0,WeatherDisplay:10.37,2013-05-27 18:58:00,
2013-05-27 15:03:00,70.8,41.8,30.06,North,0,0.0,0.0,35,0.00,CLR,,0.00,886.0,WeatherDisplay:10.37,2013-05-27 19:03:00,
2013-05-27 15:08:00,70.8,43.9,30.06,North,0,0.0,0.0,38,0.00,CLR,,0.00,872.0,WeatherDisplay:10.37,2013-05-27 19:08:00,
2013-05-27 15:13:00,71.0,48.0,30.06,North,0,0.0,0.0,44,0.00,CLR,,0.00,867.0,WeatherDisplay:10.37,2013-05-27 19:13:00,
2013-05-27 15:18:00,71.1,48.7,30.06,North,0,0.0,0.0,45,0.00,CLR,,0.00,853.0,WeatherDisplay:10.37,2013-05-27 19:18:00,
2013-05-27 15:23:00,71.0,44.8,30.06,North,0,0.0,0.0,39,0.00,CLR,,0.00,846.0,WeatherDisplay:10.37,2013-05-27 19:23:00,
2013-05-27 15:28:00,71.1,45.5,30.06,North,0,0.0,0.0,40,0.00,CLR,,0.00,831.0,WeatherDisplay:10.37,2013-05-27 19:28:00,
2013-05-27 15:33:00,71.0,42.7,30.06,North,0,0.0,0.0,36,0.00,CLR,,0.00,817.0,WeatherDisplay:10.37,2013-05-27 19:33:00,
2013-05-27 15:38:00,70.7,42.4,30.06,North,0,0.0,0.0,36,0.00,CLR,,0.00,803.0,WeatherDisplay:10.37,2013-05-27 19:38:00,
2013-05-27 15:43:00,70.9,42.6,30.06,North,0,0.0,0.0,36,0.00,CLR,,0.00,793.0,WeatherDisplay:10.37,2013-05-27 19:43:00,
2013-05-27 15:48:00,71.1,44.9,30.06,North,0,0.0,0.0,39,0.00,CLR,,0.00,777.0,WeatherDisplay:10.37,2013-05-27 19:48:00,
2013-05-27 15:53:00,70.8,45.3,30.06,North,0,0.0,0.0,40,0.00,CLR,,0.00,765.0,WeatherDisplay:10.37,2013-05-27 19:53:00,
2013-05-27 15:58:00,70.6,40.9,30.06,North,0,0.0,0.0,34,0.00,CLR,,0.00,745.0,WeatherDisplay:10.37,2013-05-27 19:58:00,
2013-05-27 16:03:00,70.4,44.3,30.06,North,0,0.0,0.0,39,0.00,CLR,,0.00,731.0,WeatherDisplay:10.37,2013-05-27 20:03:00,
2013-05-27 16:08:00,70.4,43.6,30.06,North,0,0.0,0.0,38,0.00,CLR,,0.00,722.0,WeatherDisplay:10.37,2013-05-27 20:08:00,
2013-05-27 16:13:00,70.4,43.6,30.06,North,0,0.0,0.0,38,0.00,CLR,,0.00,708.0,WeatherDisplay:10.37,2013-05-27 20:13:00,
2013-05-27 16:18:00,70.3,42.8,30.05,North,0,0.0,0.0,37,0.00,CLR,,0.00,691.0,WeatherDisplay:10.37,2013-05-27 20:18:00,
2013-05-27 16:23:00,69.7,43.6,30.05,North,0,0.0,0.0,39,0.00,CLR,,0.00,671.0,WeatherDisplay:10.37,2013-05-27 20:23:00,
2013-05-27 16:28:00,69.4,43.4,30.06,North,0,0.0,0.0,39,0.00,CLR,,0.00,652.0,WeatherDisplay:10.37,2013-05-27 20:28:00,
2013-05-27 16:33:00,69.5,42.8,30.06,North,0,0.0,0.0,38,0.00,SCT,,0.00,88.0,WeatherDisplay:10.37,2013-05-27 20:33:00,
2013-05-27 16:38:00,69.5,43.4,30.05,North,0,0.0,0.0,39,0.00,BKN,,0.00,100.0,WeatherDisplay:10.37,2013-05-27 20:38:00,
2013-05-27 16:43:00,69.6,42.2,30.05,North,0,0.0,0.0,37,0.00,BKN,,0.00,81.0,WeatherDisplay:10.37,2013-05-27 20:43:00,
2013-05-27 16:48:00,69.7,44.3,30.05,North,0,0.0,0.0,40,0.00,BKN,,0.00,257.0,WeatherDisplay:10.37,2013-05-27 20:48:00,
2013-05-27 16:53:00,69.7,41.5,30.05,North,0,0.0,0.0,36,0.00,BKN,,0.00,72.0,WeatherDisplay:10.37,2013-05-27 20:53:00,
2013-05-27 16:58:00,69.7,41.5,30.05,North,0,0.0,0.0,36,0.00,BKN,,0.00,135.0,WeatherDisplay:10.37,2013-05-27 20:58:00,
2013-05-27 17:03:00,69.6,41.5,30.05,North,0,0.0,0.0,36,0.00,BKN,,0.00,183.0,WeatherDisplay:10.37,2013-05-27 21:03:00,
2013-05-27 17:08:00,69.5,42.1,30.05,North,0,0.0,0.0,37,0.00,BKN,,0.00,135.0,WeatherDisplay:10.37,2013-05-27 21:08:00,
2013-05-27 17:13:00,69.5,45.4,30.05,North,0,0.0,0.0,42,0.00,BKN,,0.00,111.0,WeatherDisplay:10.37,2013-05-27 21:13:00,
2013-05-27 17:18:00,69.5,42.8,30.05,North,0,0.0,0.0,38,0.00,BKN,,0.00,83.0,WeatherDisplay:10.37,2013-05-27 21:18:00,
2013-05-27 17:23:00,69.4,44.7,30.05,North,0,0.0,0.0,41,0.00,BKN,,0.00,202.0,WeatherDisplay:10.37,2013-05-27 21:23:00,
2013-05-27 17:28:00,69.4,46.5,30.05,North,0,0.0,0.0,44,0.00,BKN,,0.00,186.0,WeatherDisplay:10.37,2013-05-27 21:28:00,
2013-05-27 17:33:00,69.3,43.3,30.05,North,0,0.0,0.0,39,0.00,BKN,,0.00,109.0,WeatherDisplay:10.37,2013-05-27 21:33:00,
2013-05-27 17:38:00,69.2,42.5,30.05,North,0,0.0,0.0,38,0.00,BKN,,0.00,60.0,WeatherDisplay:10.37,2013-05-27 21:38:00,
2013-05-27 17:43:00,69.1,42.4,30.05,North,0,0.0,0.0,38,0.00,BKN,,0.00,58.0,WeatherDisplay:10.37,2013-05-27 21:43:00,
2013-05-27 17:48:00,69.0,41.6,30.05,North,0,0.0,0.0,37,0.00,BKN,,0.00,74.0,WeatherDisplay:10.37,2013-05-27 21:48:00,
2013-05-27 17:53:00,68.9,44.2,30.06,North,0,0.0,0.0,41,0.00,BKN,,0.00,67.0,WeatherDisplay:10.37,2013-05-27 21:53:00,
2013-05-27 17:58:00,68.8,44.1,30.05,North,0,0.0,0.0,41,0.00,BKN,,0.00,60.0,WeatherDisplay:10.37,2013-05-27 21:58:00,
2013-05-27 18:03:00,68.6,42.6,30.05,North,0,0.0,0.0,39,0.00,BKN,,0.00,40.0,WeatherDisplay:10.37,2013-05-27 22:03:00,
2013-05-27 18:08:00,68.5,44.5,30.06,North,0,0.0,0.0,42,0.00,BKN,,0.00,37.0,WeatherDisplay:10.37,2013-05-27 22:08:00,
2013-05-27 18:13:00,68.3,43.0,30.06,North,0,0.0,0.0,40,0.00,BKN,,0.00,37.0,WeatherDisplay:10.37,2013-05-27 22:13:00,
2013-05-27 18:18:00,68.2,45.4,30.06,North,0,0.0,0.0,44,0.00,BKN,,0.00,33.0,WeatherDisplay:10.37,2013-05-27 22:18:00,
2013-05-27 18:23:00,68.0,43.4,30.06,North,0,0.0,0.0,41,0.00,BKN,,0.00,33.0,WeatherDisplay:10.37,2013-05-27 22:23:00,
2013-05-27 18:28:00,67.8,43.2,30.06,North,0,0.0,0.0,41,0.00,BKN,,0.00,33.0,WeatherDisplay:10.37,2013-05-27 22:28:00,
2013-05-27 18:33:00,67.7,45.6,30.06,North,0,0.0,0.0,45,0.00,BKN,,0.00,35.0,WeatherDisplay:10.37,2013-05-27 22:33:00,
2013-05-27 18:38:00,67.5,45.4,30.06,North,0,0.0,0.0,45,0.00,BKN,,0.00,28.0,WeatherDisplay:10.37,2013-05-27 22:38:00,
2013-05-27 18:43:00,67.3,45.2,30.06,North,0,0.0,0.0,45,0.00,BKN,,0.00,26.0,WeatherDisplay:10.37,2013-05-27 22:43:00,
2013-05-27 18:48:00,67.0,43.8,30.06,North,0,0.0,0.0,43,0.00,BKN,,0.00,25.0,WeatherDisplay:10.37,2013-05-27 22:48:00,
2013-05-27 18:53:00,66.8,45.9,30.06,North,0,0.0,0.0,47,0.00,BKN,,0.00,23.0,WeatherDisplay:10.37,2013-05-27 22:53:00,
2013-05-27 18:58:00,66.6,46.3,30.06,North,0,0.0,0.0,48,0.00,BKN,,0.00,21.0,WeatherDisplay:10.37,2013-05-27 22:58:00,
2013-05-27 19:03:00,66.5,46.7,30.06,North,0,0.0,0.0,49,0.00,BKN,,0.00,19.0,WeatherDisplay:10.37,2013-05-27 23:03:00,
2013-05-27 19:08:00,66.3,47.6,30.06,North,0,0.0,0.0,51,0.00,BKN,,0.00,18.0,WeatherDisplay:10.37,2013-05-27 23:08:00,
2013-05-27 19:13:00,66.0,46.3,30.06,North,0,0.0,0.0,49,0.00,BKN,,0.00,16.0,WeatherDisplay:10.37,2013-05-27 23:13:00,
2013-05-27 19:18:00,65.8,46.6,30.07,North,0,0.0,0.0,50,0.00,BKN,,0.00,14.0,WeatherDisplay:10.37,2013-05-27 23:18:00,
2013-05-27 19:23:00,65.5,47.4,30.07,North,0,0.0,0.0,52,0.00,BKN,,0.00,12.0,WeatherDisplay:10.37,2013-05-27 23:23:00,
2013-05-27 19:28:00,65.3,46.2,30.07,North,0,0.0,0.0,50,0.00,BKN,,0.00,12.0,WeatherDisplay:10.37,2013-05-27 23:28:00,
2013-05-27 19:33:00,65.0,48.4,30.08,North,0,0.0,0.0,55,0.00,BKN,,0.00,11.0,WeatherDisplay:10.37,2013-05-27 23:33:00,
2013-05-27 19:38:00,64.7,47.7,30.07,North,0,0.0,0.0,54,0.00,BKN,,0.00,9.0,WeatherDisplay:10.37,2013-05-27 23:38:00,
2013-05-27 19:43:00,64.4,47.4,30.08,North,0,0.0,0.0,54,0.00,BKN,,0.00,7.0,WeatherDisplay:10.37,2013-05-27 23:43:00,
2013-05-27 19:48:00,64.1,46.6,30.08,North,0,0.0,0.0,53,0.00,BKN,,0.00,7.0,WeatherDisplay:10.37,2013-05-27 23:48:00,
2013-05-27 19:53:00,63.7,47.2,30.08,North,0,0.0,0.0,55,0.00,BKN,,0.00,5.0,WeatherDisplay:10.37,2013-05-27 23:53:00,
2013-05-27 19:58:00,63.3,47.8,30.08,North,0,0.0,0.0,57,0.00,BKN,,0.00,5.0,WeatherDisplay:10.37,2013-05-27 23:58:00,
2013-05-27 20:03:00,62.8,47.3,30.08,North,0,0.0,0.0,57,0.00,OVC,,0.00,0.0,WeatherDisplay:10.37,2013-05-28 00:03:00,
2013-05-27 20:08:00,62.4,47.0,30.08,North,0,0.0,0.0,57,0.00,OVC,,0.00,0.0,WeatherDisplay:10.37,2013-05-28 00:08:00,
2013-05-27 20:13:00,62.1,46.7,30.08,North,0,0.0,0.0,57,0.00,OVC,,0.00,0.0,WeatherDisplay:10.37,2013-05-28 00:13:00,
2013-05-27 20:18:00,61.8,47.3,30.08,North,0,0.0,0.0,59,0.00,OVC,,0.00,0.0,WeatherDisplay:10.37,2013-05-28 00:18:00,
2013-05-27 20:23:00,61.5,46.6,30.08,North,0,0.0,0.0,58,0.00,OVC,,0.00,0.0,WeatherDisplay:10.37,2013-05-28 00:23:00,
2013-05-27 20:28:00,61.1,46.7,30.08,North,0,0.0,0.0,59,0.00,OVC,,0.00,0.0,WeatherDisplay:10.37,2013-05-28 00:28:00,
2013-05-27 20:33:00,60.7,46.7,30.08,North,0,0.0,0.0,60,0.00,OVC,,0.00,0.0,WeatherDisplay:10.37,2013-05-28 00:33:00,
2013-05-27 20:38:00,60.3,46.8,30.09,North,0,0.0,0.0,61,0.00,OVC,,0.00,0.0,WeatherDisplay:10.37,2013-05-28 00:38:00,
2013-05-27 20:43:00,59.9,46.4,30.09,North,0,0.0,0.0,61,0.00,CLR,,0.00,0.0,WeatherDisplay:10.37,2013-05-28 00:43:00,
2013-05-27 20:48:00,59.5,46.9,30.09,North,0,0.0,0.0,63,0.00,CLR,,0.00,0.0,WeatherDisplay:10.37,2013-05-28 00:48:00,
2013-05-27 20:53:00,59.1,46.9,30.09,North,0,0.0,0.0,64,0.00,CLR,,0.00,0.0,WeatherDisplay:10.37,2013-05-28 00:53:00,
2013-05-27 20:58:00,58.7,46.5,30.09,North,0,0.0,0.0,64,0.00,CLR,,0.00,0.0,WeatherDisplay:10.37,2013-05-28 00:58:00,
2013-05-27 21:03:00,58.4,46.3,30.10,North,0,0.0,0.0,64,0.00,CLR,,0.00,0.0,WeatherDisplay:10.37,2013-05-28 01:03:00,
2013-05-27 21:08:00,57.9,45.8,30.10,North,0,0.0,0.0,64,0.00,CLR,,0.00,0.0,WeatherDisplay:10.37,2013-05-28 01:08:00,
2013-05-27 21:13:00,57.5,46.2,30.10,North,0,0.0,0.0,66,0.00,CLR,,0.00,0.0,WeatherDisplay:10.37,2013-05-28 01:13:00,
2013-05-27 21:18:00,57.1,46.2,30.10,North,0,0.0,0.0,67,0.00,CLR,,0.00,0.0,WeatherDisplay:10.37,2013-05-28 01:18:00,
2013-05-27 21:23:00,56.6,46.5,30.10,North,0,0.0,0.0,69,0.00,CLR,,0.00,0.0,WeatherDisplay:10.37,2013-05-28 01:23:00,
2013-05-27 21:28:00,56.2,46.2,30.10,North,0,0.0,0.0,69,0.00,CLR,,0.00,0.0,WeatherDisplay:10.37,2013-05-28 01:28:00,
2013-05-27 21:33:00,55.8,45.8,30.10,North,0,0.0,0.0,69,0.00,CLR,,0.00,0.0,WeatherDisplay:10.37,2013-05-28 01:33:00,
2013-05-27 21:38:00,55.6,45.6,30.10,North,0,0.0,0.0,69,0.00,CLR,,0.00,0.0,WeatherDisplay:10.37,2013-05-28 01:38:00,
2013-05-27 21:43:00,55.3,45.7,30.11,North,0,0.0,0.0,70,0.00,CLR,,0.00,0.0,WeatherDisplay:10.37,2013-05-28 01:43:00,
2013-05-27 21:48:00,55.0,45.4,30.11,North,0,0.0,0.0,70,0.00,CLR,,0.00,0.0,WeatherDisplay:10.37,2013-05-28 01:48:00,
2013-05-27 21:53:00,54.8,45.2,30.11,North,0,0.0,0.0,70,0.00,CLR,,0.00,0.0,WeatherDisplay:10.37,2013-05-28 01:53:00,
2013-05-27 21:58:00,54.6,45.4,30.11,North,0,0.0,0.0,71,0.00,CLR,,0.00,0.0,WeatherDisplay:10.37,2013-05-28 01:58:00,
2013-05-27 22:03:00,54.4,45.2,30.11,North,0,0.0,0.0,71,0.00,CLR,,0.00,0.0,WeatherDisplay:10.37,2013-05-28 02:03:00,
2013-05-27 22:08:00,54.2,45.0,30.11,North,0,0.0,0.0,71,0.00,CLR,,0.00,0.0,WeatherDisplay:10.37,2013-05-28 02:08:00,
2013-05-27 22:13:00,54.0,44.8,30.12,North,0,0.0,0.0,71,0.00,CLR,,0.00,0.0,WeatherDisplay:10.37,2013-05-28 02:13:00,
2013-05-27 22:18:00,53.8,44.6,30.12,North,0,0.0,0.0,71,0.00,CLR,,0.00,0.0,WeatherDisplay:10.37,2013-05-28 02:18:00,
2013-05-27 22:23:00,53.7,44.5,30.12,North,0,0.0,0.0,71,0.00,CLR,,0.00,0.0,WeatherDisplay:10.37,2013-05-28 02:23:00,
2013-05-27 22:28:00,53.5,44.7,30.12,North,0,0.0,0.0,72,0.00,CLR,,0.00,0.0,WeatherDisplay:10.37,2013-05-28 02:28:00,
2013-05-27 22:33:00,53.2,44.0,30.12,North,0,0.0,0.0,71,0.00,CLR,,0.00,0.0,WeatherDisplay:10.37,2013-05-28 02:33:00,
2013-05-27 22:38:00,53.0,43.8,30.12,North,0,0.0,0.0,71,0.00,CLR,,0.00,0.0,WeatherDisplay:10.37,2013-05-28 02:38:00,
2013-05-27 22:43:00,52.9,44.1,30.12,North,0,0.0,0.0,72,0.00,CLR,,0.00,0.0,WeatherDisplay:10.37,2013-05-28 02:43:00,
2013-05-27 22:48:00,52.7,44.3,30.12,North,0,0.0,0.0,73,0.00,CLR,,0.00,0.0,WeatherDisplay:10.37,2013-05-28 02:48:00,
2013-05-27 22:53:00,52.5,44.1,30.12,North,0,0.0,0.0,73,0.00,CLR,,0.00,0.0,WeatherDisplay:10.37,2013-05-28 02:53:00,
2013-05-27 22:58:00,52.4,44.4,30.12,North,0,0.0,0.0,74,0.00,CLR,,0.00,0.0,WeatherDisplay:10.37,2013-05-28 02:58:00,
2013-05-27 23:03:00,52.2,44.2,30.12,North,0,0.0,0.0,74,0.00,CLR,,0.00,0.0,WeatherDisplay:10.37,2013-05-28 03:03:00,
2013-05-27 23:08:00,52.1,44.4,30.12,North,0,0.0,0.0,75,0.00,CLR,,0.00,0.0,WeatherDisplay:10.37,2013-05-28 03:08:00,
2013-05-27 23:13:00,52.0,44.3,30.13,North,0,0.0,0.0,75,0.00,CLR,,0.00,0.0,WeatherDisplay:10.37,2013-05-28 03:13:00,
2013-05-27 23:18:00,51.9,44.2,30.13,North,0,0.0,0.0,75,0.00,CLR,,0.00,0.0,WeatherDisplay:10.37,2013-05-28 03:18:00,
2013-05-27 23:23:00,51.8,44.1,30.13,North,0,0.0,0.0,75,0.00,CLR,,0.00,0.0,WeatherDisplay:10.37,2013-05-28 03:23:00,
2013-05-27 23:28:00,51.6,43.9,30.13,North,0,0.0,0.0,75,0.00,CLR,,0.00,0.0,WeatherDisplay:10.37,2013-05-28 03:28:00,
2013-05-27 23:33:00,51.6,43.9,30.13,North,0,0.0,0.0,75,0.00,CLR,,0.00,0.0,WeatherDisplay:10.37,2013-05-28 03:33:00,
2013-05-27 23:38:00,51.5,43.8,30.14,North,0,0.0,0.0,75,0.00,CLR,,0.00,0.0,WeatherDisplay:10.37,2013-05-28 03:38:00,
2013-05-27 23:43:00,51.5,43.8,30.14,North,0,0.0,0.0,75,0.00,CLR,,0.00,0.0,WeatherDisplay:10.37,2013-05-28 03:43:00,
2013-05-27 23:48:00,51.5,43.8,30.14,North,0,0.0,0.0,75,0.00,CLR,,0.00,0.0,WeatherDisplay:10.37,2013-05-28 03:48:00,
2013-05-27 23:53:00,51.5,43.8,30.14,North,0,0.0,0.0,75,0.00,CLR,,0.00,0.0,WeatherDisplay:10.37,2013-05-28 03:53:00,
2013-05-27 23:58:00,51.5,43.8,30.14,North,0,0.0,0.0,75,0.00,CLR,,0.00,0.0,WeatherDisplay:10.37,2013-05-28 03:58:00,